User: anonymous   Login
Location: Olsztyn
(53.7767°N, 20.4765°E)
Time: 13:34:55
(UTC+02:00)
Language:

Altair - Orbit

View from above orbital plane
View from above orbital plane
View from above satellite
View from above satellite

Ground track
Ground track

The orbit data is extracted from the following two-line orbital elements,

1 00050U 60009B   24200.91364428 -.00000098  00000-0 -11304-3 0  9996
2 00050  47.2284 169.0995 0112654  93.6169 267.7511 12.20141735852444
Epoch (UTC): 18 July 2024 21:55:38
Eccentricity: 0.0112654
inclination: 47.2284°
perigee height: 1502 km
apogee height: 1682 km
right ascension of ascending node: 169.0995°
argument of perigee: 93.6169°
revolutions per day: 12.20141735
mean anomaly at epoch: 267.7511°
orbit number at epoch: 85244

The dashed part of the orbit path shows where the satellite is in the earth's shadow,  

DLR